Time,TemperatureF,DewpointF,PressureIn,WindDirection,WindDirectionDegrees,WindSpeedMPH,WindSpeedGustMPH,Humidity,HourlyPrecipIn,Conditions,Clouds,dailyrainin,SoftwareType,DateUTC
2013-02-11 00:11:00,61.0,61.0,-100.00,NE,41,3.0,4.0,99,0.00,,,2.36,,2013-02-11 06:11:00,
2013-02-11 00:21:00,61.0,61.0,-100.00,NE,41,3.0,4.0,99,0.00,,,2.36,,2013-02-11 06:21:00,
2013-02-11 00:32:00,61.0,61.0,-100.00,NE,41,3.0,4.0,99,0.00,,,2.36,,2013-02-11 06:32:00,
2013-02-11 00:42:00,61.0,61.0,-100.00,NE,41,3.0,4.0,99,0.00,,,2.36,,2013-02-11 06:42:00,
2013-02-11 01:11:00,61.0,61.0,-100.00,NW,310,3.0,5.0,99,0.00,,,2.36,,2013-02-11 07:11:00,
2013-02-11 01:22:00,61.0,61.0,-100.00,NW,310,3.0,5.0,99,0.00,,,2.36,,2013-02-11 07:22:00,
2013-02-11 01:32:00,61.0,61.0,-100.00,NW,310,3.0,5.0,99,0.00,,,2.36,,2013-02-11 07:32:00,
2013-02-11 01:41:00,61.0,61.0,-100.00,NW,310,3.0,5.0,99,0.00,,,2.36,,2013-02-11 07:41:00,
2013-02-11 02:11:00,61.0,61.0,-100.00,NW,309,4.0,6.0,99,0.00,,,2.36,,2013-02-11 08:11:00,
2013-02-11 02:21:00,61.0,61.0,-100.00,NW,309,4.0,6.0,99,0.00,,,2.36,,2013-02-11 08:21:00,
2013-02-11 02:32:00,61.0,61.0,-100.00,NW,309,4.0,6.0,99,0.00,,,2.36,,2013-02-11 08:32:00,
2013-02-11 02:42:00,61.0,61.0,-100.00,NW,309,4.0,6.0,99,0.00,,,2.36,,2013-02-11 08:42:00,
2013-02-11 03:12:00,60.0,53.0,-100.00,North,350,3.0,7.0,78,0.00,,,2.36,,2013-02-11 09:12:00,
2013-02-11 03:21:00,60.0,53.0,-100.00,North,350,3.0,7.0,78,0.00,,,2.36,,2013-02-11 09:21:00,
2013-02-11 03:32:00,60.0,53.0,-100.00,North,350,3.0,7.0,78,0.00,,,2.36,,2013-02-11 09:32:00,
2013-02-11 03:41:00,60.0,53.0,-100.00,North,350,3.0,7.0,78,0.00,,,2.36,,2013-02-11 09:41:00,
2013-02-11 04:11:00,59.0,52.0,-100.00,NE,35,4.0,7.0,77,0.00,,,2.36,,2013-02-11 10:11:00,
2013-02-11 04:21:00,59.0,52.0,-100.00,NE,35,4.0,7.0,77,0.00,,,2.36,,2013-02-11 10:21:00,
2013-02-11 04:31:00,59.0,52.0,-100.00,NE,35,4.0,7.0,77,0.00,,,2.36,,2013-02-11 10:31:00,
2013-02-11 04:42:00,59.0,52.0,-100.00,NE,35,4.0,7.0,77,0.00,,,2.36,,2013-02-11 10:42:00,
2013-02-11 05:11:00,57.0,50.0,-100.00,North,354,6.0,12.0,77,0.01,,,2.37,,2013-02-11 11:11:00,
2013-02-11 05:22:00,57.0,50.0,-100.00,North,354,6.0,12.0,77,0.01,,,2.37,,2013-02-11 11:22:00,
2013-02-11 05:32:00,57.0,50.0,-100.00,North,354,6.0,12.0,77,0.01,,,2.37,,2013-02-11 11:32:00,
2013-02-11 05:42:00,57.0,50.0,-100.00,North,354,6.0,12.0,77,0.01,,,2.37,,2013-02-11 11:42:00,
2013-02-11 06:12:00,57.0,48.0,-100.00,NE,49,5.0,9.0,71,0.00,,,2.37,,2013-02-11 12:12:00,
2013-02-11 06:22:00,57.0,48.0,-100.00,NE,49,5.0,9.0,71,0.00,,,2.37,,2013-02-11 12:22:00,
2013-02-11 06:32:00,57.0,48.0,-100.00,NE,49,5.0,9.0,71,0.00,,,2.37,,2013-02-11 12:32:00,
2013-02-11 06:42:00,57.0,48.0,-100.00,NE,49,5.0,9.0,71,0.00,,,2.37,,2013-02-11 12:42:00,
2013-02-11 07:12:00,53.0,50.0,-100.00,NNW,347,3.0,7.0,91,0.05,,,-99.99,,2013-02-11 13:12:00,
2013-02-11 07:22:00,53.0,50.0,-100.00,NNW,347,3.0,7.0,91,0.05,,,-99.99,,2013-02-11 13:22:00,
2013-02-11 07:32:00,53.0,50.0,-100.00,NNW,347,3.0,7.0,91,0.05,,,-99.99,,2013-02-11 13:32:00,
2013-02-11 07:42:00,53.0,50.0,-100.00,NNW,347,3.0,7.0,91,0.05,,,-99.99,,2013-02-11 13:42:00,
2013-02-11 08:11:00,51.0,49.0,-100.00,ENE,74,3.0,6.0,92,0.05,,,-99.99,,2013-02-11 14:11:00,
2013-02-11 08:22:00,51.0,49.0,-100.00,ENE,74,3.0,6.0,92,0.05,,,-99.99,,2013-02-11 14:22:00,
2013-02-11 08:33:00,51.0,49.0,-100.00,ENE,74,3.0,6.0,92,0.05,,,-99.99,,2013-02-11 14:33:00,
2013-02-11 08:42:00,51.0,49.0,-100.00,ENE,74,3.0,6.0,92,0.05,,,-99.99,,2013-02-11 14:42:00,
2013-02-11 09:11:00,52.0,51.0,-100.00,ENE,66,3.0,6.0,95,0.02,,,2.49,,2013-02-11 15:11:00,
2013-02-11 09:22:00,52.0,51.0,-100.00,ENE,66,3.0,6.0,95,0.02,,,2.49,,2013-02-11 15:22:00,
2013-02-11 09:32:00,52.0,51.0,-100.00,ENE,66,3.0,6.0,95,0.02,,,2.49,,2013-02-11 15:32:00,
2013-02-11 09:42:00,52.0,51.0,-100.00,ENE,66,3.0,6.0,95,0.02,,,2.49,,2013-02-11 15:42:00,
2013-02-11 10:02:00,52.0,50.0,-100.00,East,85,6.0,11.0,94,0.04,,,2.52,,2013-02-11 16:02:00,
2013-02-11 10:12:00,52.0,50.0,-100.00,East,85,6.0,11.0,94,0.04,,,2.52,,2013-02-11 16:12:00,
2013-02-11 10:22:00,52.0,50.0,-100.00,East,85,6.0,11.0,94,0.04,,,2.52,,2013-02-11 16:22:00,
2013-02-11 10:32:00,52.0,50.0,-100.00,East,85,6.0,11.0,94,0.04,,,2.52,,2013-02-11 16:32:00,
2013-02-11 10:42:00,52.0,50.0,-100.00,East,85,6.0,11.0,94,0.04,,,2.52,,2013-02-11 16:42:00,
2013-02-11 11:11:00,51.0,49.0,-100.00,NE,53,5.0,10.0,94,0.03,,,2.55,,2013-02-11 17:11:00,
2013-02-11 11:22:00,51.0,49.0,-100.00,NE,53,5.0,10.0,94,0.03,,,2.55,,2013-02-11 17:22:00,
2013-02-11 11:32:00,51.0,49.0,-100.00,NE,53,5.0,10.0,94,0.03,,,2.55,,2013-02-11 17:32:00,
2013-02-11 11:42:00,51.0,49.0,-100.00,NE,53,5.0,10.0,94,0.03,,,2.55,,2013-02-11 17:42:00,
2013-02-11 12:11:00,52.0,50.0,-100.00,ESE,107,5.0,9.0,94,0.02,,,2.57,,2013-02-11 18:11:00,
2013-02-11 12:22:00,52.0,50.0,-100.00,ESE,107,5.0,9.0,94,0.02,,,2.57,,2013-02-11 18:22:00,
2013-02-11 12:32:00,52.0,50.0,-100.00,ESE,107,5.0,9.0,94,0.02,,,2.57,,2013-02-11 18:32:00,
2013-02-11 12:42:00,52.0,50.0,-100.00,ESE,107,5.0,9.0,94,0.02,,,2.57,,2013-02-11 18:42:00,
2013-02-11 13:11:00,52.0,51.0,-100.00,ESE,103,6.0,10.0,95,0.27,,,-99.99,,2013-02-11 19:11:00,
2013-02-11 13:22:00,52.0,51.0,-100.00,ESE,103,6.0,10.0,95,0.27,,,-99.99,,2013-02-11 19:22:00,
2013-02-11 13:32:00,52.0,51.0,-100.00,ESE,103,6.0,10.0,95,0.27,,,-99.99,,2013-02-11 19:32:00,
2013-02-11 13:42:00,52.0,51.0,-100.00,ESE,103,6.0,10.0,95,0.27,,,-99.99,,2013-02-11 19:42:00,
2013-02-11 14:11:00,52.0,51.0,-100.00,NNE,18,3.0,5.0,95,0.11,,,0.61,,2013-02-11 20:11:00,
2013-02-11 14:21:00,52.0,51.0,-100.00,NNE,18,3.0,5.0,95,0.11,,,0.61,,2013-02-11 20:21:00,
2013-02-11 14:32:00,52.0,51.0,-100.00,NNE,18,3.0,5.0,95,0.11,,,0.61,,2013-02-11 20:32:00,
2013-02-11 14:42:00,52.0,51.0,-100.00,NNE,18,3.0,5.0,95,0.11,,,0.61,,2013-02-11 20:42:00,
2013-02-11 15:12:00,53.0,52.0,-100.00,ENE,57,3.0,5.0,95,0.03,,,0.64,,2013-02-11 21:12:00,
2013-02-11 15:22:00,53.0,52.0,-100.00,ENE,57,3.0,5.0,95,0.03,,,0.64,,2013-02-11 21:22:00,
2013-02-11 15:32:00,53.0,52.0,-100.00,ENE,57,3.0,5.0,95,0.03,,,0.64,,2013-02-11 21:32:00,
2013-02-11 15:42:00,53.0,52.0,-100.00,ENE,57,3.0,5.0,95,0.03,,,0.64,,2013-02-11 21:42:00,
2013-02-11 16:11:00,52.0,51.0,-100.00,NNE,21,3.0,7.0,95,0.11,,,0.75,,2013-02-11 22:11:00,
2013-02-11 16:22:00,52.0,51.0,-100.00,NNE,21,3.0,7.0,95,0.11,,,0.75,,2013-02-11 22:22:00,
2013-02-11 16:32:00,52.0,51.0,-100.00,NNE,21,3.0,7.0,95,0.11,,,0.75,,2013-02-11 22:32:00,
2013-02-11 16:42:00,52.0,51.0,-100.00,NNE,21,3.0,7.0,95,0.11,,,0.75,,2013-02-11 22:42:00,
2013-02-11 17:11:00,52.0,51.0,-100.00,NE,34,5.0,9.0,95,0.04,,,0.78,,2013-02-11 23:11:00,
2013-02-11 17:21:00,52.0,51.0,-100.00,NE,34,5.0,9.0,95,0.04,,,0.78,,2013-02-11 23:21:00,
2013-02-11 17:32:00,52.0,51.0,-100.00,NE,34,5.0,9.0,95,0.04,,,0.78,,2013-02-11 23:32:00,
2013-02-11 17:42:00,52.0,51.0,-100.00,NE,34,5.0,9.0,95,0.04,,,0.78,,2013-02-11 23:42:00,
2013-02-11 18:11:00,52.0,51.0,-100.00,NE,43,5.0,10.0,95,0.01,,,0.79,,2013-02-12 00:11:00,
2013-02-11 18:22:00,52.0,51.0,-100.00,NE,43,5.0,10.0,95,0.01,,,0.79,,2013-02-12 00:22:00,
2013-02-11 18:32:00,52.0,51.0,-100.00,NE,43,5.0,10.0,95,0.01,,,0.79,,2013-02-12 00:32:00,
2013-02-11 18:42:00,52.0,51.0,-100.00,NE,43,5.0,10.0,95,0.01,,,0.79,,2013-02-12 00:42:00,
2013-02-11 19:11:00,51.0,49.0,-100.00,NE,36,4.0,11.0,94,0.00,,,0.79,,2013-02-12 01:11:00,
2013-02-11 19:22:00,51.0,49.0,-100.00,NE,36,4.0,11.0,94,0.00,,,0.79,,2013-02-12 01:22:00,
2013-02-11 19:32:00,51.0,49.0,-100.00,NE,36,4.0,11.0,94,0.00,,,0.79,,2013-02-12 01:32:00,
2013-02-11 19:42:00,51.0,49.0,-100.00,NE,36,4.0,11.0,94,0.00,,,0.79,,2013-02-12 01:42:00,
2013-02-11 20:12:00,51.0,49.0,-100.00,ENE,58,7.0,12.0,94,0.00,,,0.79,,2013-02-12 02:12:00,
2013-02-11 20:21:00,51.0,49.0,-100.00,ENE,58,7.0,12.0,94,0.00,,,0.79,,2013-02-12 02:21:00,
2013-02-11 20:32:00,51.0,49.0,-100.00,ENE,58,7.0,12.0,94,0.00,,,0.79,,2013-02-12 02:32:00,
2013-02-11 20:41:00,51.0,49.0,-100.00,ENE,58,7.0,12.0,94,0.00,,,0.79,,2013-02-12 02:41:00,
2013-02-11 21:11:00,51.0,49.0,-100.00,NE,42,4.0,9.0,93,0.00,,,0.79,,2013-02-12 03:11:00,
2013-02-11 21:21:00,51.0,49.0,-100.00,NE,42,4.0,9.0,93,0.00,,,0.79,,2013-02-12 03:21:00,
2013-02-11 21:32:00,51.0,49.0,-100.00,NE,42,4.0,9.0,93,0.00,,,0.79,,2013-02-12 03:32:00,
2013-02-11 21:42:00,51.0,49.0,-100.00,NE,42,4.0,9.0,93,0.00,,,0.79,,2013-02-12 03:42:00,
2013-02-11 22:11:00,51.0,50.0,-100.00,NE,54,4.0,8.0,96,0.14,,,0.93,,2013-02-12 04:11:00,
2013-02-11 22:21:00,51.0,50.0,-100.00,NE,54,4.0,8.0,96,0.14,,,0.93,,2013-02-12 04:21:00,
2013-02-11 22:31:00,51.0,50.0,-100.00,NE,54,4.0,8.0,96,0.14,,,0.93,,2013-02-12 04:31:00,
2013-02-11 22:41:00,51.0,50.0,-100.00,NE,54,4.0,8.0,96,0.14,,,0.93,,2013-02-12 04:41:00,
2013-02-11 23:11:00,51.0,50.0,-100.00,NNE,32,4.0,8.0,96,0.00,,,0.93,,2013-02-12 05:11:00,
2013-02-11 23:21:00,51.0,50.0,-100.00,NNE,32,4.0,8.0,96,0.00,,,0.93,,2013-02-12 05:21:00,
2013-02-11 23:31:00,51.0,50.0,-100.00,NNE,32,4.0,8.0,96,0.00,,,0.93,,2013-02-12 05:31:00,
2013-02-11 23:42:00,51.0,50.0,-100.00,NNE,32,4.0,8.0,96,0.00,,,0.93,,2013-02-12 05:42:00,